Flight Track Log - Related Links

Times and Time Zones

All times are in EST time to prevent confusion due to time zone crossing. See the DAL3970 flight status page for this flight to view local times or setup timezone preferences in your user account.

Time Position Orientation Groundspeed Altitude Reporting Facility
EST Latitude Longitude Course Direction KTS MPH feet Rate Location/Type
Sun 07:07:49 AM 35.8731 -78.8064 229° Southwest 156 180 1,200  Level Washington Center
Sun 07:08:07 AM 35.8642 -78.8189 229° Southwest 153 176 2,000 2,127 Climbing Washington Center
Sun 07:09:08 AM 35.8775 -78.8656 289° West 222 255 4,000 2,108 Climbing Washington Center
Sun 07:10:35 AM 35.9653 -78.7869 36° Northeast 296 341 7,200 2,694 Climbing Washington Center
Sun 07:11:35 AM 36.0297 -78.7228 39° Northeast 296 341 10,600 2,600 Climbing Washington Center
Sun 07:12:35 AM 36.1003 -78.6536 38° Northeast 311 358 12,400 1,746 Climbing Washington Center
Sun 07:13:49 AM 36.2011 -78.5469 40° Northeast 357 411 14,500 1,612 Climbing Washington Center
Sun 07:14:49 AM 36.2825 -78.4597 41° Northeast 372 428 16,000 1,627 Climbing Washington Center
Sun 07:15:47 AM 36.3717 -78.3858 34° Northeast 385 443 17,700 1,487 Climbing Washington Center
Sun 07:16:46 AM 36.4692 -78.3247 27° Northeast 385 443 18,900 1,339 Climbing Washington Center
Sun 07:17:48 AM 36.5664 -78.2633 27° Northeast 380 437 20,400 1,317 Climbing Washington Center
Sun 07:18:49 AM 36.6700 -78.2047 24° Northeast 390 449 21,600 1,160 Climbing Washington Center
Sun 07:19:47 AM 36.7736 -78.1383 27° Northeast 396 456 22,700 718 Climbing Washington Center
Sun 07:20:46 AM 36.8814 -78.0744 25° Northeast 407 468 23,000 148 Climbing Washington Center
Sun 07:21:49 AM 36.9892 -78.0103 25° Northeast 417 480 23,000  Level Washington Center
Sun 07:22:47 AM 37.0989 -77.9406 27° Northeast 427 491 23,000  Level Washington Center
Sun 07:23:46 AM 37.2108 -77.8736 25° Northeast 432 497 23,000  Level Washington Center
Sun 07:24:46 AM 37.3206 -77.8039 27° Northeast 432 497 23,000  Level Washington Center
Sun 07:25:49 AM 37.4325 -77.7364 26° Northeast 432 497 23,000  Level Washington Center
Sun 07:26:47 AM 37.5422 -77.6689 26° Northeast 432 497 23,000  Level Washington Center
Sun 07:27:48 AM 37.6539 -77.5983 27° Northeast 432 497 23,000  Level Washington Center
Sun 07:28:47 AM 37.7633 -77.5278 27° Northeast 432 497 23,000  Level Washington Center
Sun 07:29:46 AM 37.8750 -77.4597 26° Northeast 432 497 23,000 -246 Level Washington Center
Sun 07:30:49 AM 37.9847 -77.3886 27° Northeast 432 497 22,500 -1,171 Descending Washington Center
Sun 07:31:49 AM 38.0814 -77.3328 24° Northeast 427 491 20,600 -2,067 Descending Washington Center
Sun 07:32:48 AM 38.1844 -77.2667 27° Northeast 422 486 18,400 -2,300 Descending Washington Center
Sun 07:33:49 AM 38.3003 -77.1925 27° Northeast 422 486 16,000 -1,714 Descending Washington Center
Sun 07:34:47 AM 38.3928 -77.1203 31° Northeast 411 473 15,000 -508 Descending Washington Center
Sun 07:35:47 AM 38.4733 -77.0264 42° Northeast 396 456 15,000 -545 Level Washington Center
Sun 07:36:48 AM 38.5494 -76.9350 43° Northeast 385 443 13,900 -1,240 Descending Washington Center
Sun 07:37:48 AM 38.6211 -76.8458 44° Northeast 365 420 12,500 -1,388 Descending Washington Center
Sun 07:38:49 AM 38.6844 -76.7725 42° Northeast 332 382 11,100 -1,412 Descending Washington Center
Sun 07:39:47 AM 38.7206 -76.6958 59° Northeast 260 299 9,700 -1,050 Descending Washington Center
Sun 07:40:49 AM 38.6689 -76.6711 160° South 122 140 9,000 -253 Descending Washington Center
Sun 07:42:33 AM 38.5833 -76.7667 221° Southwest 239 275 9,000  Level Potomac TRACON
Sun 07:43:27 AM 38.5500 -76.8167 230° Southwest 238 274 9,000  Level Potomac TRACON
Sun 07:44:27 AM 38.5833 -76.8833 303° West 240 276 9,000  Level Potomac TRACON
Sun 07:45:28 AM 38.6333 -76.8333 38° Northeast 252 290 9,000  Level Potomac TRACON
Sun 07:46:28 AM 38.6833 -76.7667 46° Northeast 255 293 9,000  Level Potomac TRACON
Sun 07:47:28 AM 38.7167 -76.7000 57° Northeast 272 313 9,000  Level Potomac TRACON
Sun 07:48:29 AM 38.6667 -76.6667 152° Southeast 242 278 9,000  Level Potomac TRACON
Sun 07:49:23 AM 38.6333 -76.7167 230° Southwest 231 266 9,000  Level Potomac TRACON
Sun 07:50:23 AM 38.5833 -76.7833 226° Southwest 234 269 9,000  Level Potomac TRACON
Sun 07:51:23 AM 38.5500 -76.8500 237° Southwest 246 283 9,000  Level Potomac TRACON
Sun 07:52:23 AM 38.6000 -76.8667 345° North 247 284 9,000  Level Potomac TRACON
Sun 07:53:23 AM 38.6500 -76.8167 38° Northeast 253 291 9,000  Level Potomac TRACON
Sun 07:54:23 AM 38.7000 -76.7500 46° Northeast 257 296 9,000 -50 Level Potomac TRACON
Sun 07:55:23 AM 38.7167 -76.6667 76° East 265 305 8,900  Descending Potomac TRACON
Sun 07:56:23 AM 38.6500 -76.6833 191° South 243 280 9,000 50 Climbing Potomac TRACON
Sun 07:57:23 AM 38.6167 -76.7500 237° Southwest 233 268 9,000  Level Potomac TRACON
Sun 07:58:23 AM 38.5667 -76.8000 218° Southwest 237 273 9,000  Level Potomac TRACON
Sun 07:59:23 AM 38.5500 -76.8667 252° West 243 280 9,000  Level Potomac TRACON
Sun 08:00:24 AM 38.6167 -76.8500 11° North 257 296 9,000  Level Potomac TRACON
Sun 08:01:24 AM 38.6667 -76.8000 38° Northeast 258 297 9,000  Level Potomac TRACON
Sun 08:02:24 AM 38.7167 -76.7333 46° Northeast 259 298 9,000  Level Potomac TRACON
Sun 08:03:24 AM 38.7000 -76.6667 108° East 269 310 9,000  Level Potomac TRACON
Sun 08:04:24 AM 38.6333 -76.7000 201° Southwest 236 272 9,000  Level Potomac TRACON
Sun 08:05:24 AM 38.6000 -76.7667 237° Southwest 237 273 9,000  Level Potomac TRACON
Sun 08:06:24 AM 38.5500 -76.8167 218° Southwest 239 275 9,000  Level Potomac TRACON
Sun 08:07:25 AM 38.5833 -76.8833 303° West 247 284 9,000  Level Potomac TRACON
Sun 08:08:25 AM 38.6333 -76.8333 38° Northeast 257 296 9,000  Level Potomac TRACON
Sun 08:09:25 AM 38.6833 -76.7667 46° Northeast 257 296 9,000  Level Potomac TRACON
Sun 08:10:25 AM 38.7167 -76.7000 57° Northeast 267 307 9,000  Level Potomac TRACON
Sun 08:11:25 AM 38.6667 -76.6667 152° Southeast 252 290 9,000  Level Potomac TRACON
Sun 08:12:25 AM 38.6167 -76.7333 226° Southwest 232 267 9,000  Level Potomac TRACON
Sun 08:13:25 AM 38.5667 -76.7833 218° Southwest 239 275 9,000  Level Potomac TRACON
Sun 08:14:25 AM 38.5500 -76.8500 252° West 245 282 9,000  Level Potomac TRACON
Sun 08:15:25 AM 38.6000 -76.8667 345° North 256 295 9,000  Level Potomac TRACON
Sun 08:16:26 AM 38.6500 -76.8000 46° Northeast 258 297 9,000  Level Potomac TRACON
Sun 08:17:26 AM 38.7000 -76.7500 38° Northeast 261 300 9,000  Level Potomac TRACON
Sun 08:18:26 AM 38.7000 -76.6667 90° East 262 302 9,000  Level Potomac TRACON
Sun 08:19:26 AM 38.6500 -76.7000 208° Southwest 244 281 9,000  Level Potomac TRACON
Sun 08:20:26 AM 38.6000 -76.7500 218° Southwest 236 272 9,000  Level Potomac TRACON
Sun 08:21:26 AM 38.5500 -76.8167 226° Southwest 240 276 9,000  Level Potomac TRACON
Sun 08:22:26 AM 38.5667 -76.8833 288° West 248 285 9,000  Level Potomac TRACON
Sun 08:23:26 AM 38.6333 -76.8333 30° Northeast 260 299 9,000  Level Potomac TRACON
Sun 08:24:26 AM 38.6833 -76.7833 38° Northeast 260 299 9,000  Level Potomac TRACON
Sun 08:25:26 AM 38.7167 -76.7167 57° Northeast 267 307 9,000  Level Potomac TRACON
Sun 08:26:26 AM 38.6833 -76.6667 130° Southeast 261 300 9,000  Level Potomac TRACON
Sun 08:27:26 AM 38.6333 -76.7167 218° Southwest 234 269 9,000  Level Potomac TRACON
Sun 08:28:26 AM 38.5833 -76.7833 226° Southwest 235 270 9,000  Level Potomac TRACON
Sun 08:29:26 AM 38.5500 -76.8333 230° Southwest 234 269 9,000  Level Potomac TRACON
Sun 08:30:26 AM 38.6000 -76.8667 332° Northwest 246 283 9,000  Level Potomac TRACON
Sun 08:31:26 AM 38.6500 -76.8167 38° Northeast 244 281 9,000  Level Potomac TRACON
Sun 08:32:26 AM 38.7000 -76.7667 38° Northeast 256 295 9,000  Level Potomac TRACON
Sun 08:33:26 AM 38.7167 -76.6833 76° East 268 308 9,000 -400 Level Potomac TRACON
Sun 08:34:26 AM 38.6667 -76.6833 180° South 248 285 8,200 -900 Descending Potomac TRACON
Sun 08:35:26 AM 38.6167 -76.7333 218° Southwest 222 255 7,200 -600 Descending Potomac TRACON
Sun 08:36:26 AM 38.5667 -76.7833 218° Southwest 216 249 7,000 -100 Descending Potomac TRACON
Sun 08:37:26 AM 38.5500 -76.8500 252° West 231 266 7,000  Level Potomac TRACON
Sun 08:38:26 AM 38.6000 -76.8667 345° North 255 293 7,000  Level Potomac TRACON
Sun 08:39:26 AM 38.6500 -76.8000 46° Northeast 260 299 7,000  Level Potomac TRACON
Sun 08:40:26 AM 38.7167 -76.7333 38° Northeast 263 303 7,000  Level Potomac TRACON
Sun 08:41:26 AM 38.7000 -76.6667 108° East 249 287 7,000  Level Potomac TRACON
Sun 08:42:27 AM 38.6500 -76.7000 208° Southwest 217 250 7,000  Level Potomac TRACON
Sun 08:43:27 AM 38.6167 -76.7500 230° Southwest 220 253 7,000  Level Potomac TRACON
Sun 08:44:27 AM 38.5667 -76.8000 218° Southwest 220 253 7,000  Level Potomac TRACON
Sun 08:45:27 AM 38.5667 -76.8667 270° West 239 275 7,000  Level Potomac TRACON
Sun 08:46:27 AM 38.6167 -76.8500 15° North 263 303 7,000  Level Potomac TRACON
Sun 08:47:27 AM 38.6667 -76.7833 46° Northeast 262 302 7,000 -500 Level Potomac TRACON
Sun 08:48:27 AM 38.7167 -76.7167 46° Northeast 270 311 6,000 -500 Descending Potomac TRACON
Sun 08:49:27 AM 38.6833 -76.6667 130° Southeast 248 285 6,000  Level Potomac TRACON
Sun 08:50:27 AM 38.6500 -76.7333 237° Southwest 212 244 6,000  Level Potomac TRACON
Sun 08:51:27 AM 38.6167 -76.7833 230° Southwest 205 236 6,000 -300 Level Potomac TRACON
Sun 08:52:27 AM 38.5833 -76.8500 237° Southwest 202 232 5,400 -500 Descending Potomac TRACON
Sun 08:53:27 AM 38.5500 -76.9000 230° Southwest 193 222 5,000 -200 Descending Potomac TRACON
Sun 08:54:27 AM 38.5333 -76.9500 247° West 199 229 5,000 -550 Level Potomac TRACON
Sun 08:55:27 AM 38.5833 -76.9833 332° Northwest 216 249 3,900 -1,100 Descending Potomac TRACON
Sun 08:56:27 AM 38.6333 -77.0167 332° Northwest 189 217 2,800 -700 Descending Potomac TRACON
Sun 08:57:27 AM 38.6833 -77.0167 360° North 196 226 2,500 -350 Descending Potomac TRACON
Sun 08:58:27 AM 38.7333 -77.0333 345° North 199 229 2,100 -700 Descending Potomac TRACON
Sun 08:59:27 AM 38.7833 -77.0333 360° North 171 197 1,100 -900 Descending Potomac TRACON
Sun 09:00:27 AM 38.8333 -77.0333 360° North 147 169 300 -800 Descending Potomac TRACON
Sun 09:02:00 AM 38.8863 -76.9771 40° Northeast  Level Estimated
Sun 09:09:00 AM 39.1251 -76.7223 40° Northeast  Level Estimated
Sun 09:10:00 AM 39.1591 -76.6858 40° Northeast  Level Estimated
Sun 09:11:00 AM 39.1754 -76.6683 40° Northeast  Level Estimated
Sun 09:12:00 AM 39.1754 -76.6683 293° West  Level Estimated
Sun 09:13:00 AM 39.1754 -76.6683 293° West  Level Estimated
Sun 09:14:00 AM 39.1754 -76.6683 293° West  Level Estimated
Sun 09:15:00 AM 39.1754 -76.6683 293° West  Level Estimated
Sun 09:16:00 AM 39.1754 -76.6683 293° West  Level Estimated
Sun 09:17:00 AM 39.1754 -76.6683 293° West  Level Estimated
Sun 09:18:00 AM 39.1754 -76.6683 293° West  Level Estimated
Sun 09:19:00 AM 39.1754 -76.6683 293° West  Level Estimated
Sun 09:20:00 AM 39.1754 -76.6683 293° West  Level Estimated

Login

Don't have an account? Register now (free) for customized features, flight alerts, and more!